Regional Weather Roundup
Issued by NWS

Home | Current Version | Previous Version | Text Only | Print | Product List | Glossary On
Versions: 1 2 3 4 5 6 7 8 9 10 11 12 13 14 15 16 17 18 19 20 21 22 23 24 25 26 27 28 29 30 31 32 33 34 35 36 37 38 39 40 41 42 43 44 45 46 47 48 49 50
394
ASUS45 KSLC 241710
RWRUT

UTAH REGIONAL WEATHER ROUNDUP
NATIONAL WEATHER SERVICE SALT LAKE CITY UT
1100 AM MDT FRI MAR 24 2017

UTZ001>011-023>025-241800-

NORTHERN UTAH

CITY           SKY/WX    TMP DP  RH WIND       PRES   REMARKS
BRIGHAM CITY     N/A     46  31  57 CALM      30.23S
HILL AFB       SUNNY     45  33  61 E12       30.22S
LOGAN          SUNNY     44  36  73 CALM      30.22S
OGDEN          SUNNY     45  33  63 SE6       30.22S
SALT LAKE CITY MOSUNNY   48  37  65 SE14      30.22S
WENDOVER       SUNNY     43  28  55 NE10      30.21R
HEBER CITY     SUNNY     45  30  57 CALM      30.23F

$$

UTZ011>015-024>027-241800-

CENTRAL/NORTHEAST UTAH

CITY           SKY/WX    TMP DP  RH WIND       PRES   REMARKS
PROVO AIRPORT  SUNNY     44  36  73 SW6       30.26F
MOAB/CANYONLAN SUNNY     56  31  38 NW12G18   30.18R
DELTA          SUNNY     41  32  70 S5        30.25F
PRICE          SUNNY     48  28  46 VRB5      30.22R
RICHFIELD      SUNNY     43  30  61 S3        30.28F
ROOSEVELT      SUNNY     50  34  53 S5        30.26R
VERNAL         CLOUDY    50  29  44 VRB3      30.22R

$$

UTZ013>016-019>022-027-241800-

SOUTHERN UTAH

CITY           SKY/WX    TMP DP  RH WIND       PRES   REMARKS
BRYCE CANYON   SUNNY     40  19  43 N9        30.27R WCI  34
CEDAR CITY     SUNNY     40  28  62 CALM      30.25R
MILFORD        SUNNY    N/A N/A N/A SW14      30.26R
ST GEORGE      SUNNY     51  39  63 CALM      30.26S
HANKSVILLE     SUNNY     52  27  37 SW3       30.24S
KANAB          SUNNY     48  32  53 SW6       30.30R
BLANDING       SUNNY     53  26  36 NW12G18   30.23R

$$

REGIONAL REPORTS     COLORADO/ARIZONA

CITY           SKY/WX    TMP DP  RH WIND       PRES   REMARKS
CRAIG, CO      SUNNY     49  28  44 N13G18    30.18R
GRAND JUNCTION MOSUNNY   52  30  43 N14G20    30.18R
RIFLE, CO      SUNNY     50  29  44 NW7G18    30.16R
MONTROSE, CO   MOSUNNY   47  30  51 NW15G24   30.18R
CORTEZ, CO     PTSUNNY   49  32  52 N18G26    30.14R
COLORADO CITY    N/A     50  32  50 CALM      30.29R
PAGE, AZ       SUNNY     54  32  43 NE6       30.22R
GRAND CANYON   SUNNY     46  22  38 NW7       30.28
KINGMAN, AZ    SUNNY     59  24  26 CALM      30.25R
FLAGSTAFF, AZ  SUNNY     42  16  34 CALM      30.27R

$$

REGIONAL REPORTS    NEVADA/IDAHO/WYOMING

CITY           SKY/WX    TMP DP  RH WIND       PRES   REMARKS
LAS VEGAS, NV  MOSUNNY   62  30  29 VRB6      30.22R
ELY, NY        SUNNY     43  22  43 S8        30.21F
ELKO, NV       SUNNY     49  29  46 S9        30.12F HAZE
POCATELLO, ID  SUNNY     51  32  48 S17G23    30.16S
BURLEY, ID     SUNNY     51  27  39 S12       30.12S
FORT BRIDGER,    N/A     41  27  57 W7        30.26S
EVANSTON, WY   SUNNY     35  29  78 SW7       30.23S WCI  29
ROCK SPRINGS,  PTSUNNY   41  33  73 W9        30.23R
KEMMERER, WY     N/A     34  25  69 CALM      30.24R

$$




USA.gov is the U.S. government's official web portal to all federal, state and local government web resources and services.